FW2916 Weather Reports


Display with metric or nautical units.
time (UTC)temp
F
wind
direction
speed
MPH
gust
MPH
rain 1hr
in
rain 24hr
in
rain mn
in
humidity
%
barometer
mb
20260509131541 58 217 0.0 4.0 0.00 0.02 0.01 89 1009.7
20260509130040 55 161 0.0 3.0 0.00 0.02 0.01 97 1009.5
20260509124544 54 0 0.0 3.0 0.00 0.02 0.01 98 1009.2
20260509123041 53 0 0.0 1.0 0.00 0.02 0.01 98 1009.2
20260509121536 52 0 0.0 2.0 0.00 0.02 0.01 98 1009.0
20260509120041 52 0 0.0 0.0 0.00 0.02 0.01 98 1008.9
20260509114541 52 0 0.0 1.0 0.00 0.02 0.01 98 1008.9
20260509113038 51 105 0.0 0.0 0.00 0.02 0.01 98 1008.6
20260509111536 51 0 0.0 1.0 0.00 0.02 0.01 98 1008.5
20260509110036 52 0 0.0 1.0 0.00 0.02 0.01 98 1008.3
20260509104546 52 189 0.0 1.0 0.01 0.02 0.01 98 1008.3
20260509103038 52 0 0.0 1.0 0.01 0.02 0.01 98 1008.3
20260509101542 52 0 0.0 0.0 0.01 0.02 0.01 98 1008.5
20260509100041 53 0 0.0 1.0 0.01 0.02 0.01 98 1008.5
20260509094536 52 0 0.0 0.0 0.00 0.01 0.00 98 1008.7
20260509093035 52 0 0.0 0.0 0.00 0.01 0.00 98 1008.6
20260509091540 53 0 0.0 0.0 0.00 0.01 0.00 98 1008.7
20260509090047 53 202 0.0 2.0 0.00 0.01 0.00 98 1008.5
20260509084540 53 0 0.0 1.0 0.00 0.01 0.00 98 1008.4
20260509083034 53 197 0.0 2.0 0.00 0.01 0.00 98 1008.5
20260509081550 54 0 0.0 2.0 0.00 0.01 0.00 98 1008.5
20260509080043 54 174 0.0 2.0 0.00 0.01 0.00 98 1008.5
20260509074541 54 181 0.0 2.0 0.00 0.01 0.00 98 1008.5
20260509073045 53 0 0.0 1.0 0.00 0.01 0.00 98 1008.6
20260509071545 53 144 0.0 2.0 0.00 0.01 0.00 98 1008.7
20260509070042 52 115 0.0 0.0 0.00 0.01 0.00 98 1008.8
20260509064542 51 0 0.0 1.0 0.00 0.01 0.00 98 1008.8
20260509063059 50 0 0.0 0.0 0.00 0.01 0.00 97 1009.0
20260509061557 50 0 0.0 0.0 0.00 0.01 0.00 97 1009.1
20260509060051 51 0 0.0 0.0 0.00 0.01 0.00 97 1009.0
20260509054542 51 0 0.0 0.0 0.00 0.01 0.00 97 1009.1
20260509053043 51 0 0.0 0.0 0.00 0.01 0.00 97 1009.2
20260509051541 52 0 0.0 0.0 0.00 0.01 0.00 97 1009.1
20260509050042 52 0 0.0 0.0 0.00 0.01 0.00 97 1009.1
20260509044541 52 0 0.0 0.0 0.00 0.01 0.01 97 1009.0
20260509043042 52 0 0.0 0.0 0.00 0.01 0.01 97 1009.1
20260509041541 52 0 0.0 0.0 0.00 0.01 0.01 97 1009.2
20260509040040 53 0 0.0 0.0 0.00 0.01 0.01 97 1009.4
20260509034537 52 0 0.0 1.0 0.00 0.01 0.01 96 1009.3
20260509033043 52 0 0.0 0.0 0.00 0.01 0.01 96 1009.4
20260509031544 53 0 0.0 0.0 0.00 0.01 0.01 96 1009.4
20260509030047 53 0 0.0 0.0 0.00 0.01 0.01 96 1009.2
20260509024539 54 0 0.0 0.0 0.00 0.01 0.01 96 1009.1
20260509023035 54 0 0.0 0.0 0.00 0.01 0.01 95 1008.9
20260509021542 55 0 0.0 0.0 0.00 0.01 0.01 94 1008.8
20260509020049 56 0 0.0 0.0 0.00 0.01 0.01 93 1008.8
20260509014548 56 0 0.0 0.0 0.00 0.01 0.01 91 1008.6
20260509013042 58 0 0.0 0.0 0.00 0.01 0.01 90 1008.3
20260509011538 59 0 0.0 0.0 0.00 0.01 0.01 87 1008.1
20260509010036 61 0 0.0 0.0 0.00 0.01 0.01 86 1008.1
20260509004544 62 0 0.0 0.0 0.00 0.01 0.01 84 1007.5
20260509003041 63 0 0.0 1.0 0.00 0.01 0.01 83 1007.4
20260509001543 63 32 0.0 2.0 0.00 0.01 0.01 83 1007.5
20260509000041 64 0 0.0 1.0 0.00 0.01 0.01 82 1007.3
20260508234536 64 0 0.0 2.0 0.00 0.01 0.01 80 1007.1
20260508233036 64 0 0.0 1.0 0.00 0.01 0.01 79 1007.0
20260508231544 65 97 0.0 2.0 0.00 0.01 0.01 79 1007.2
20260508230041 64 75 1.0 4.0 0.00 0.01 0.01 82 1006.9
20260508224541 64 97 0.0 2.0 0.00 0.01 0.01 83 1007.1
20260508223042 63 43 0.0 2.0 0.01 0.01 0.01 85 1007.4
20260508221535 64 0 1.0 3.0 0.01 0.01 0.01 85 1007.7
20260508220036 65 316 1.0 5.0 0.01 0.01 0.01 83 1008.0
20260508214541 65 325 1.0 5.0 0.01 0.01 0.01 86 1008.0
20260508213041 64 309 0.0 1.0 0.00 0.00 0.00 83 1008.3
20260508211540 65 0 0.0 1.0 0.00 0.00 0.00 82 1008.5
20260508210039 66 0 0.0 1.0 0.00 0.00 0.00 79 1008.5
20260508204536 67 0 0.0 1.0 0.00 0.00 0.00 75 1008.5
20260508203043 69 23 0.0 2.0 0.00 0.00 0.00 71 1008.4
20260508201551 68 0 0.0 3.0 0.00 0.00 0.00 71 1009.0
20260508200041 67 0 0.0 1.0 0.00 0.00 0.00 73 1008.6
20260508194537 67 0 0.0 1.0 0.00 0.00 0.00 71 1008.1
20260508193035 67 0 0.0 2.0 0.00 0.00 0.00 72 1008.9
20260508191543 66 167 0.0 2.0 0.00 0.00 0.00 73 1009.0
20260508190041 66 0 0.0 1.0 0.00 0.00 0.00 72 1008.8
20260508184543 67 266 0.0 3.0 0.00 0.00 0.00 70 1009.1
20260508183041 68 0 0.0 1.0 0.00 0.00 0.00 70 1009.2
20260508181544 67 154 0.0 2.0 0.00 0.00 0.00 69 1009.3
20260508180043 67 0 0.0 1.0 0.00 0.00 0.00 69 1009.6
20260508174551 68 217 0.0 3.0 0.00 0.00 0.00 69 1009.6
20260508173044 66 158 0.0 2.0 0.00 0.00 0.00 71 1009.4
20260508171541 65 0 0.0 2.0 0.00 0.00 0.00 72 1009.4
20260508170036 65 0 0.0 3.0 0.00 0.00 0.00 71 1009.7
20260508164534 64 0 1.0 5.0 0.00 0.00 0.00 72 1009.9
20260508163041 64 257 0.0 4.0 0.00 0.00 0.00 72 1010.0
20260508161540 65 206 1.0 5.0 0.00 0.00 0.00 70 1009.9
20260508160041 64 268 1.0 4.0 0.00 0.00 0.00 70 1009.8
20260508154535 64 147 0.0 2.0 0.00 0.00 0.00 71 1009.9
20260508153041 64 129 0.0 1.0 0.00 0.00 0.00 71 1010.0
20260508151546 63 221 0.0 4.0 0.00 0.00 0.00 71 1010.1
20260508150041 62 0 0.0 1.0 0.00 0.00 0.00 73 1010.2
20260508144537 61 0 0.0 1.0 0.00 0.00 0.00 75 1010.3
20260508143034 60 210 0.0 4.0 0.00 0.00 0.00 74 1010.1
20260508141604 60 0 0.0 3.0 0.00 0.00 0.00 74 1010.3
20260508140044 59 126 1.0 3.0 0.00 0.00 0.00 75 1010.2
20260508134553 58 240 0.0 3.0 0.00 0.00 0.00 75 1010.4
20260508133037 58 143 0.0 2.0 0.00 0.00 0.00 76 1010.3